Ana Sayfa
METAR-TAF:

METAR-TAF

Havaalanları :

Grafton, Avustralya

Enlem: 29-45-36S, Boylam: 153-01-48E, yükseklik: 34 m

Güncel hava durumu gözlemi

Rapor saat 18:00 UTC de 1 saat ve 11 dakika önce yapıldı.
Rüzgar güney/güneybatıdan 6 kt
Sıcaklık 23°C
Nem 78%
Basınç 1006 hPa
Görüş mesafesi 10 km veya daha fazla

METAR: YGFN 191800Z AUTO 20006KT 9999 // NCD 23/19 Q1006

Saat: 06:11 (19:11 UTC)


TAF: eksik

4.000'den fazla havaalanı için hava durumu gözlemleri ve tahminleri (METAR ve TAF raporları).

Kullanılabilir istasyonlar harita üzerinde sarı ve kırmızı noktalarla gösterilir.

İstasyonun adını görmek için fareyi noktanın üzerinde gezdirin.

Sonrasında hava gözlem ve tahminlerini görmek için tıklayın.

Haritayı değiştirmek için: yaklaştırmak için siyah artı işaretli yeşil düğmeye ve uzaklaştırmak için de eksi işaretli düğmeye hızla tıklayın; bitişik haritalar için yeşil okları kullanın.


METAR-TAF: